Tracking 31027 objects as of 19-Jul-2025
HD Live streaming from Space Station
objects crossing your sky now

DELTA 1 R/B(2)

Track DELTA 1 R/B(2) now!


NORAD ID: 15206
Int'l Code: 1984-088F
Perigee: 737.0 km
Apogee: 48,573.4 km
Inclination: 26.9 °
Period: 906.5 minutes
Semi major axis: 31026 km
RCS: 2.318 m2 (large)
Launch date: August 16, 1984
Source: United States (US)
Launch site: AIR FORCE EASTERN TEST RANGE (AFETR)

Note: This is a ROCKET BODY
Your satellite tracking list
FLOCK 4Q 34
Track 1 satellite(s)




NASA's NSSDC Master Catalog

Two Line Element Set (TLE):
1 15206U 84088F   25198.60784660 -.00000331  00000-0 -16286-1 0  9997
2 15206  26.9151 189.6785 7709027 168.5208 234.3256  1.58858271233150
Source of the keplerian elements: AFSPC